TimeEDT,TemperatureF,Dew PointF,Humidity,Sea Level PressureIn,VisibilityMPH,Wind Direction,Wind SpeedMPH,Gust SpeedMPH,PrecipitationIn,Events,Conditions,WindDirDegrees,DateUTC
1:00 AM,30.2,26.6,86,30.12,9.0,South,3.5,-,N/A,,Clear,190,2013-05-14 05:00:00
2:00 AM,2,-2,74,30.08,,NE,13.8,,,,,50,2013-05-14 06:00:00
2:00 AM,28.4,26.6,93,30.12,9.0,Calm,Calm,-,N/A,,Clear,0,2013-05-14 06:00:00
3:00 AM,28.4,26.6,93,30.12,9.0,SSE,2.3,-,N/A,,Clear,160,2013-05-14 07:00:00
4:00 AM,26.6,26.6,100,30.12,9.0,Calm,Calm,-,N/A,,Clear,0,2013-05-14 08:00:00
5:00 AM,26.6,26.6,100,30.12,9.0,Variable,2.3,-,N/A,,Mostly Cloudy,0,2013-05-14 09:00:00
6:00 AM,26.6,24.8,93,30.13,9.0,West,2.3,-,N/A,,Overcast,260,2013-05-14 10:00:00
7:00 AM,32.0,30.2,93,30.15,9.0,Calm,Calm,-,N/A,,Mostly Cloudy,0,2013-05-14 11:00:00
8:00 AM,-3,-9,65,30.12,,NE,15.0,,,,,40,2013-05-14 12:00:00
8:00 AM,39.2,30.2,70,30.15,9.0,Calm,Calm,-,N/A,,Clear,0,2013-05-14 12:00:00
9:00 AM,46.4,28.4,50,30.14,9.0,SW,3.5,-,N/A,,Clear,230,2013-05-14 13:00:00
10:00 AM,48.2,23.0,37,30.12,9.0,SW,6.9,-,N/A,,Partly Cloudy,230,2013-05-14 14:00:00
11:00 AM,50.0,28.4,43,30.11,9.0,SSW,4.6,-,N/A,,Scattered Clouds,210,2013-05-14 15:00:00
12:00 PM,53.6,26.6,35,30.11,9.0,Variable,2.3,-,N/A,,Clear,0,2013-05-14 16:00:00
1:00 PM,53.6,26.6,35,30.09,9.0,SW,9.2,-,N/A,,Scattered Clouds,230,2013-05-14 17:00:00
2:00 PM,4,-4,57,30.13,,NE,13.8,,,,,50,2013-05-14 18:00:00
2:00 PM,55.4,30.2,38,30.08,9.0,SSW,6.9,-,N/A,,Partly Cloudy,200,2013-05-14 18:00:00
3:00 PM,55.4,28.4,36,30.06,9.0,South,15.0,25.3,N/A,,Mostly Cloudy,170,2013-05-14 19:00:00
4:00 PM,55.4,28.4,36,30.03,9.0,SSW,15.0,-,N/A,,Scattered Clouds,200,2013-05-14 20:00:00
5:00 PM,53.6,26.6,35,30.03,9.0,SSW,8.1,-,N/A,,Overcast,200,2013-05-14 21:00:00
6:00 PM,53.6,24.8,33,30.02,9.0,South,12.7,-,N/A,,Mostly Cloudy,190,2013-05-14 22:00:00
7:00 PM,53.6,26.6,35,30.00,9.0,SSW,6.9,-,N/A,,Clear,200,2013-05-14 23:00:00
8:00 PM,5,-2,59,30.18,,NE,8.1,,,,,50,2013-05-15 00:00:00
8:00 PM,50.0,30.2,47,30.01,9.0,South,3.5,-,N/A,,Clear,180,2013-05-15 00:00:00
9:00 PM,44.6,33.8,66,30.01,9.0,South,8.1,-,N/A,,Clear,190,2013-05-15 01:00:00
10:00 PM,42.8,35.6,76,30.01,9.0,South,3.5,-,N/A,,Overcast,170,2013-05-15 02:00:00
11:00 PM,42.8,33.8,70,29.98,9.0,Calm,Calm,-,N/A,,Overcast,0,2013-05-15 03:00:00